Welcome to the New NWS' Forecast!
Most changes are behind the scenes, but click here for differences you might notice.
Latest weather observations around

Haleyville, Posey Field Airport (K1M4)

Using English Units (Switch to International System of Units)
Date/ Time (CDT) Wind (mph) Vis. (mi) Weather Sky Cond. Temp (°F) Rel. Humidity Wind Chill (°F) Heat Index (°F) Pressure Precip. (in)
Air Dwpt 6 hour Altimeter (inHg) Sea level (inHg) 1 hr 3 hr 6 hr
Max Min
Oct 23 01:56 Calm 10 Clear CLR 42 41     96%     30.24 30.31      
Oct 23 00:56 Calm 10 Clear CLR 42 42     100%     30.25 30.32      
Oct 22 23:56 Calm 10 Clear CLR 42 41     96%     30.25 30.33      
Oct 22 22:56 Calm 10 Clear CLR 44 43     96%     30.25 30.33      
Oct 22 21:56 Calm 10 Clear CLR 45 44     97%     30.25 30.33      
Oct 22 20:56 Calm 10 Clear CLR 46 45     96%     30.24 30.31      
Oct 22 19:56 Calm 10 Clear CLR 49 46     90%     30.23 30.3      
Oct 22 18:56 Calm 10 Clear CLR 51 46     83%     30.23 30.3      
Oct 22 17:56 SE 3 10 Clear CLR 56 47     72%     30.21 30.29      
Oct 22 16:56 SSE 6 10 Clear CLR 64 41     43%     30.22        
Oct 22 15:56 S 7 10 Clear CLR 66 39     37%     30.23 30.3      
Oct 22 14:56 S 6 10 Clear CLR 65 39     38%     30.22 30.3      
Oct 22 13:56 Calm 10 Clear CLR 64 37     37%     30.24 30.32      
Oct 22 12:56 SSW 7 10 Clear CLR 63 37     38%     30.28 30.35      
Oct 22 11:56 SW 6 10 Clear CLR 61 38     42%     30.3 30.38      
Oct 22 10:56 7 10 Clear CLR 58 38     47%     30.32 30.38      
Oct 22 09:56 S 5 10 Clear CLR 55 38     52%     30.32        
Oct 22 08:56 Calm 10 Clear CLR 46 40     79%     30.33 30.39      
Oct 22 07:56 Calm 10 Clear CLR 35 34     96%     30.3 30.38      
Oct 22 06:56 Calm 10 Clear CLR 31 31     100%     30.29 30.36      
Oct 22 05:56 Calm 10 Clear CLR 32 30     92%     30.28 30.35      
Oct 22 04:56 Calm 10 Clear CLR 34 33     96%     30.27 30.34      
Oct 22 03:56 Calm 10 Clear CLR 35 34     96%     30.26 30.33      
Oct 22 02:56 Calm 10 Clear CLR 36 34     92%     30.24 30.32      
Oct 22 01:56 Calm 10 Clear CLR 36 35     96%     30.24 30.31      
Oct 22 00:56 Calm 10 Clear CLR 39 34     82%     30.24 30.32      
Oct 21 23:56 Calm 10 Clear CLR 36 35     96%     30.27 30.35      
Oct 21 22:56 Calm 10 Clear CLR 38 36     92%     30.28 30.36      
Oct 21 21:56 N 3 10 Clear CLR 39 37     93% 37   30.28 30.35      
Oct 21 20:56 Calm 10 Clear CLR 39 38     96%     30.28 30.35      
Oct 21 19:56 Calm 10 Clear CLR 41 38     89%     30.28 30.35      
Oct 21 18:56 Calm 10 Clear CLR 43 39     86%     30.27 30.35      
Oct 21 17:56 NNE 3 10 Clear CLR 52 36     54%     30.28 30.35      
Oct 21 16:56 NE 6 10 Clear CLR 57 34     42%     30.27 30.36      
Oct 21 15:56 N 5 10 Clear CLR 57 31     37%     30.28 30.36      
Oct 21 14:56 6 10 Clear CLR 57 30     36%     30.28 30.36      
Oct 21 13:56 7 10 Clear CLR 57 30     36%     30.31 30.38      
Oct 21 12:56 6 10 Clear CLR 55 29     37%     30.34 30.41      
Oct 21 11:56 NE 8 10 Clear CLR 52 30     43%     30.35 30.43      
Oct 21 10:56 NE 10 10 Clear CLR 49 30     48% 45   30.36 30.43      
Oct 21 08:56 NE 9 10 Clear CLR 41 28     60% 35   30.35 30.42      
Oct 21 07:56 NNE 9 10 Clear CLR 38 27     64% 31   30.34 30.41      
Oct 21 06:56 NNE 8 10 Clear CLR 37 26     64% 31   30.32 30.4      
Oct 21 05:56 7 10 Clear CLR 38 26     62% 33   30.31 30.39      
Oct 21 04:56 NNE 7 10 Clear CLR 40 28     62% 35   30.29 30.36      
Oct 21 03:56 NNE 8 10 Clear CLR 43 28     55% 38   30.26 30.34      
Oct 21 02:56 7 10 Clear CLR 46 31     55% 42   30.25 30.32      
Oct 21 01:56 NNE 9 10 Clear CLR 48 38     68% 44   30.24 30.3      
Oct 21 00:56 N 7 10 Clear CLR 50 41     71%     30.22 30.29      
Oct 20 23:56 NNW 6 10 Clear CLR 51 44     77%     30.22 30.28      
Oct 20 22:56 NW 5 10 Clear CLR 54 46     74%     30.21 30.27      
Oct 20 21:56 NW 6 10 Clear CLR 54 49     83%     30.2 30.27      
Oct 20 20:56 NNW 3 10 Clear CLR 55 51     86%     30.19 30.25      
Oct 20 19:56 NNW 5 10 Clear CLR 56 52     87%     30.17 30.23      
Oct 20 18:56 NNW 5 10 Clear CLR 56 51     84%     30.15 30.21      
Oct 20 17:56 NNW 3 10 Clear CLR 59 52     78%     30.12 30.17      
Oct 20 17:08 NW 7 10 Mostly Clear FEW024 63 54     72%     30.1        
Oct 20 16:56 NNW 7 10 Mostly Cloudy BKN024 63 52     67%     30.1 30.16      
Oct 20 15:56 NW 9 10 Partly Cloudy SCT020 SCT025 61 55     81%     30.11 30.16      
Oct 20 14:56 NNW 6 10 Cloudy OVC017 62 55     78%     30.1 30.14      
Oct 20 13:56 NNW 9 10 Cloudy OVC015 62 55     78%     30.1 30.15      
Oct 20 13:21 NNW 8 10 Cloudy OVC011 61 55     82%     30.12        
Oct 20 12:56 NNW 7 10 Cloudy OVC009 59 56     90%     30.12 30.17     0
Oct 20 12:48 NW 6 10 Cloudy OVC009 57 55     94%     30.12        
Oct 20 12:25 NW 7 10 Cloudy FEW004 OVC011 57 55     94%     30.13        
Oct 20 11:56 NNW 6 10 Cloudy OVC004 56 55     97%     30.14 30.19      
Oct 20 11:48 NW 10 10 Cloudy OVC004 57 55     94%     30.14        
Oct 20 10:56 NW 7 10 Cloudy OVC006 57 56     96%     30.14 30.19 0    
Oct 20 10:47 NNW 6 10 Light Rain OVC006 57 55     94%     30.14   0    
Oct 20 10:23 NW 6 10 Light Rain BKN004 BKN009 OVC060 57 55     94%     30.14   0    
Oct 20 09:56 Calm 7 Light Rain OVC006 56 55     97%     30.13 30.18 0 0  
Oct 20 09:20 N 5 6 Light Rain and Fog/Mist BKN006 OVC049 55 55     100%     30.13   0    
Oct 20 08:56   5 Light Rain and Fog/Mist BKN004 BKN016 OVC049 56 55     97%     30.12 30.18 0    
Oct 20 08:42   8 Light Rain OVC004 55 55     100%     30.13   0    
Oct 20 07:56 NNW 6 10 Cloudy OVC008 57 55     93%     30.1 30.16 0    
Oct 20 06:56 N 6 10 Light Rain OVC008 57 56     96%     30.1 30.15 0   0
Oct 20 06:52 N 3 10 Light Rain OVC008 57 55     94%     30.1   0    
Oct 20 06:30 NNW 3 9 Light Rain BKN010 OVC017 57 55     94%     30.1   0    
Oct 20 05:56 NNW 3 10 Cloudy BKN007 BKN012 OVC019 57 56     96%     30.1 30.15 0    
Oct 20 05:43 NNW 3 10 Light Rain SCT007 BKN019 OVC034 57 55     94%     30.09   0    
Oct 20 05:30 Calm 10 Light Rain BKN007 OVC019 57 55     94%     30.09   0    
Oct 20 05:14 N 5 10 Cloudy SCT007 OVC022 57 55     94%     30.09        
Oct 20 04:56 NNW 7 10 Cloudy BKN022 OVC027 57 55     93%     30.09 30.13 0    
Oct 20 03:56 NNW 7 10 Light Rain FEW030 OVC038 58 56     93%     30.08 30.12 0 0  
Oct 20 02:56 NNW 3 10 Cloudy BKN030 OVC043 62 56     80%     30.09 30.12      
Oct 20 01:56 Calm 10 Cloudy BKN043 BKN060 OVC110 62 57     84%     30.09 30.12      
Oct 20 00:56 Calm 10 Cloudy FEW045 SCT060 OVC090 62 59     90%     30.1 30.14      
Oct 19 23:56 Calm 10 Mostly Cloudy FEW060 BKN095 61 58     90%     30.12 30.16      
Oct 19 22:56 Calm 10 Cloudy BKN055 BKN090 OVC110 63 59     87%     30.13 30.17      
Oct 19 21:56 Calm 10 Mostly Cloudy FEW090 BKN110 62 58     86%     30.14 30.19      
Oct 19 20:56 Calm 10 Cloudy FEW050 OVC100 62 60     93%     30.16 30.2      
Oct 19 19:56 Calm 10 Clear CLR 64 60     87%     30.16        
Oct 19 18:56 Calm 10 Mostly Clear FEW120 65 60     84%     30.15 30.21      
Oct 19 17:56 Calm 10 Clear CLR 67 60     79%     30.15 30.21      
Oct 19 16:56 Calm 10 Mostly Clear FEW080 72 56     57%   72 30.15 30.21      
Oct 19 15:56 SSW 7 10 Clear CLR 76 55     48%   75 30.16 30.21      
Oct 19 14:56 S 7 10 Clear CLR 75 54     48%   74 30.17 30.22      
Oct 19 13:56 S 8 10 Clear CLR 76 56     50%   76 30.2 30.25      
Oct 19 12:56 SSW 9 10 Clear CLR 74 55     52%   73 30.23 30.28      
Oct 19 11:56 S 7 10 Clear CLR 72 58     61%   72 30.26 30.32      
Oct 19 10:56 S 8 10 Clear CLR 69 57     65%     30.28 30.34      
Oct 19 09:56 S 9 10 Clear CLR 64 54     70%     30.3 30.36      
Oct 19 08:56 SE 5 10 Clear CLR 61 52     72%     30.3 30.36      
Oct 19 07:56 Calm 10 Clear CLR 51 48     89%     30.29 30.37      
Oct 19 06:56 Calm 10 Clear CLR 47 46     97%     30.28 30.36      
Oct 19 05:56 Calm 10 Clear CLR 48 46     93%     30.29 30.36      
Oct 19 04:56 E 3 10 Clear CLR 47 45     93% 46   30.28 30.35      
Oct 19 03:56 E 3 10 Clear CLR 46 44     93% 45   30.29 30.36      
Oct 19 02:56 Calm 10 Clear CLR 46 45     96%     30.31 30.37      
Oct 19 01:56 NE 3 10 Clear CLR 47 44     90% 46   30.32 30.38      
Oct 19 00:56 Calm 10 Clear CLR 48 44     86%     30.32 30.39      
Oct 18 23:56 Calm 10 Clear CLR 47 45     93%     30.34 30.41      
Oct 18 22:56 Calm 10 Clear CLR 50 44     80%     30.35 30.42      
Oct 18 21:56 Calm 10 Clear CLR 50 45     83%     30.36 30.44      
Oct 18 20:56 Calm 10 Clear CLR 50 48     93%     30.36 30.44      
Oct 18 19:56 Calm 10 Clear CLR 51 47     86%     30.36 30.44      
Oct 18 18:56 Calm 10 Clear CLR 53 48     83%     30.35 30.43      
Oct 18 17:56 Calm 10 Clear CLR 60 46     60%     30.35 30.42      
Oct 18 16:56 NE 6 10 Clear CLR 64 40     41%     30.35 30.41      
Oct 18 15:56 NNE 6 10 Clear CLR 66 42     42%     30.36 30.41      
Oct 18 14:56 7 10 Clear CLR 65 42     43%     30.36 30.42      
Oct 18 13:56 NNE 9 10 Clear CLR 64 42     45%     30.38 30.43      
Oct 18 12:56 NE 8 10 Clear CLR 65 42     43%     30.4 30.45      
Oct 18 11:56 NNE 8 10 Clear CLR 61 43     52%     30.43 30.49      
Oct 18 10:56 7 10 Clear CLR 58 43     57%     30.44 30.5      
Oct 18 09:56 NE 5 10 Clear CLR 55 42     62%     30.44 30.5      
Oct 18 08:56 5 10 Clear CLR 52 42     69%     30.44 30.5      
May 14 07:56 Calm 10 Clear CLR 73 68     84%   74 30.11        
May 14 05:56 Calm 1 Fog/Mist CLR 60 60     100%     30.08        
May 12 15:56 SSW 10 10 Clear   87 56     35%   86 30.13 30.14      
May 11 23:56 S 5 10 Clear CLR 70 59     68%     30.11 30.12      
Jun 12 02:56 S 5 10 Clear CLR 72 69     91%   73 30.14 30.15      
Jun 11 11:56 SSW 10 10 Partly Cloudy SCT075 85 70     61%   89 30.18 30.19      
Jun 10 23:56 ESE 3 10 Clear CLR 66 63     90%       30.14      
Jun 10 12:56 6 10 Partly Cloudy SCT055 83 60     46%   83 30.11 30.14      
Jun 09 04:56 Calm 8 Clear CLR 54 53     97%     29.96 30      
Jun 08 23:56 N 3 10 Clear CLR 60 56     86%     29.97 30.01      
Jun 06 12:56 Calm 10 Mostly Cloudy BKN085 BKN110 71 69     93%   72 29.85 29.87 0   0
Jun 06 00:48 Calm 3 Fog/Mist FEW120 70 70     100%     29.85   0    
Jun 05 22:37 S 5 10 Mostly Cloudy BKN005 72 70     94%   73 29.85        
Notice The following observation data may not be complete
Jun 05 20:09   10 Partly Cloudy FEW015 SCT025          %